TimeCST,TemperatureF,Dew PointF,Humidity,Sea Level PressureIn,VisibilityMPH,Wind Direction,Wind SpeedMPH,Gust SpeedMPH,PrecipitationIn,Events,Conditions,WindDirDegrees,DateUTC
12:15 AM,21.6,10.0,61,29.97,10.0,SSW,16.1,25.3,N/A,,Overcast,210,2013-11-25 06:15:00
12:35 AM,21.9,10.0,60,29.96,10.0,SSW,17.3,24.2,N/A,,Overcast,210,2013-11-25 06:35:00
12:55 AM,21.9,10.4,61,29.95,10.0,SSW,16.1,21.9,N/A,,Scattered Clouds,210,2013-11-25 06:55:00
1:15 AM,22.3,10.2,60,29.94,10.0,SSW,17.3,21.9,N/A,,Scattered Clouds,210,2013-11-25 07:15:00
1:35 AM,22.5,10.4,60,29.93,10.0,SSW,18.4,21.9,N/A,,Scattered Clouds,210,2013-11-25 07:35:00
1:55 AM,22.6,10.9,61,29.93,10.0,SSW,16.1,21.9,N/A,,Mostly Cloudy,210,2013-11-25 07:55:00
2:15 AM,22.8,11.3,61,29.93,10.0,SSW,15.0,21.9,N/A,,Mostly Cloudy,210,2013-11-25 08:15:00
2:35 AM,22.6,11.5,62,29.91,10.0,SSW,15.0,24.2,N/A,,Mostly Cloudy,210,2013-11-25 08:35:00
2:55 AM,23.0,11.5,61,29.90,10.0,SSW,16.1,21.9,N/A,,Mostly Cloudy,210,2013-11-25 08:55:00
3:15 AM,23.0,11.8,62,29.89,10.0,SW,12.7,19.6,N/A,,Mostly Cloudy,220,2013-11-25 09:15:00
3:35 AM,23.0,12.2,63,29.87,10.0,SSW,17.3,-,N/A,,Scattered Clouds,210,2013-11-25 09:35:00
3:55 AM,23.4,12.9,64,29.87,10.0,SW,13.8,21.9,N/A,,Mostly Cloudy,220,2013-11-25 09:55:00
4:15 AM,23.7,13.5,65,29.88,10.0,SW,12.7,18.4,N/A,,Overcast,220,2013-11-25 10:15:00
4:35 AM,24.1,14.0,65,29.87,10.0,SW,13.8,20.7,N/A,,Overcast,220,2013-11-25 10:35:00
4:55 AM,24.4,14.0,65,29.87,10.0,SW,15.0,21.9,N/A,,Overcast,220,2013-11-25 10:55:00
5:15 AM,24.6,14.4,65,29.87,10.0,SW,13.8,-,N/A,,Overcast,230,2013-11-25 11:15:00
5:35 AM,24.6,14.9,67,29.86,10.0,SW,12.7,18.4,N/A,,Overcast,220,2013-11-25 11:35:00
5:55 AM,24.8,15.3,67,29.85,10.0,SW,16.1,21.9,N/A,,Overcast,220,2013-11-25 11:55:00
6:15 AM,24.8,15.6,68,29.85,10.0,SW,17.3,24.2,N/A,,Overcast,230,2013-11-25 12:15:00
6:35 AM,24.6,16.0,70,29.86,10.0,SW,11.5,19.6,N/A,,Overcast,230,2013-11-25 12:35:00
6:55 AM,24.4,16.5,72,29.86,10.0,WSW,10.4,20.7,N/A,,Overcast,240,2013-11-25 12:55:00
7:15 AM,24.6,16.5,71,29.86,10.0,WSW,12.7,16.1,N/A,,Overcast,240,2013-11-25 13:15:00
7:35 AM,24.8,17.1,72,29.86,10.0,SW,11.5,18.4,N/A,,Overcast,230,2013-11-25 13:35:00
7:55 AM,24.8,17.4,74,29.86,10.0,SW,9.2,17.3,N/A,,Overcast,230,2013-11-25 13:55:00
8:15 AM,25.2,18.1,75,29.86,10.0,SW,11.5,16.1,N/A,,Overcast,230,2013-11-25 14:15:00
8:35 AM,25.3,18.7,76,29.87,10.0,SW,10.4,17.3,N/A,,Overcast,230,2013-11-25 14:35:00
8:55 AM,25.5,19.2,77,29.87,10.0,WSW,11.5,18.4,N/A,,Overcast,240,2013-11-25 14:55:00
9:15 AM,25.7,19.4,77,29.86,10.0,SW,13.8,19.6,N/A,,Overcast,230,2013-11-25 15:15:00
9:35 AM,26.2,20.1,78,29.86,10.0,SW,15.0,21.9,N/A,,Overcast,220,2013-11-25 15:35:00
9:55 AM,26.6,20.5,78,29.86,10.0,SW,12.7,20.7,N/A,,Overcast,230,2013-11-25 15:55:00
10:15 AM,27.3,21.0,77,29.86,10.0,SW,11.5,18.4,N/A,,Overcast,230,2013-11-25 16:15:00
10:35 AM,27.9,21.7,78,29.86,10.0,WSW,15.0,21.9,N/A,,Overcast,250,2013-11-25 16:35:00
10:55 AM,28.4,21.9,77,29.86,10.0,WSW,12.7,20.7,N/A,,Overcast,250,2013-11-25 16:55:00
11:15 AM,29.3,22.5,76,29.86,10.0,WSW,15.0,21.9,N/A,,Overcast,250,2013-11-25 17:15:00
11:35 AM,29.3,22.6,76,29.86,10.0,West,12.7,20.7,N/A,,Overcast,260,2013-11-25 17:35:00
11:55 AM,30.0,23.0,75,29.85,10.0,WSW,9.2,18.4,N/A,,Overcast,250,2013-11-25 17:55:00
12:15 PM,30.2,23.5,76,29.86,10.0,West,11.5,16.1,N/A,,Overcast,260,2013-11-25 18:15:00
12:35 PM,31.5,24.3,75,29.85,10.0,WSW,9.2,16.1,N/A,,Overcast,240,2013-11-25 18:35:00
12:55 PM,31.6,24.4,75,29.85,10.0,WSW,11.5,-,N/A,,Overcast,240,2013-11-25 18:55:00
1:15 PM,31.8,24.6,75,29.85,10.0,WSW,10.4,-,N/A,,Overcast,240,2013-11-25 19:15:00
1:35 PM,31.8,24.4,74,29.85,10.0,SW,13.8,18.4,N/A,,Overcast,230,2013-11-25 19:35:00
1:55 PM,32.4,24.8,74,29.84,10.0,WSW,15.0,18.4,N/A,,Mostly Cloudy,250,2013-11-25 19:55:00
2:15 PM,32.5,25.3,75,29.85,10.0,WSW,9.2,-,N/A,,Mostly Cloudy,250,2013-11-25 20:15:00
2:35 PM,32.4,25.5,76,29.85,10.0,WSW,11.5,-,N/A,,Overcast,240,2013-11-25 20:35:00
2:55 PM,32.5,25.7,76,29.86,10.0,WSW,11.5,-,N/A,,Overcast,250,2013-11-25 20:55:00
3:15 PM,32.9,25.7,75,29.86,10.0,WSW,10.4,17.3,N/A,,Overcast,240,2013-11-25 21:15:00
3:35 PM,32.9,26.2,76,29.87,10.0,WSW,10.4,-,N/A,,Overcast,250,2013-11-25 21:35:00
3:55 PM,32.9,26.2,76,29.88,10.0,WSW,6.9,-,N/A,,Overcast,240,2013-11-25 21:55:00
4:15 PM,32.9,25.9,75,29.89,10.0,West,10.4,-,N/A,,Overcast,260,2013-11-25 22:15:00
4:35 PM,33.3,25.3,73,29.89,10.0,West,12.7,17.3,N/A,,Overcast,270,2013-11-25 22:35:00
4:55 PM,33.1,24.6,71,29.90,10.0,West,9.2,-,N/A,,Overcast,270,2013-11-25 22:55:00
5:15 PM,33.1,24.3,70,29.90,10.0,West,9.2,-,N/A,,Overcast,260,2013-11-25 23:15:00
5:35 PM,32.9,24.3,71,29.91,10.0,West,9.2,-,N/A,,Overcast,260,2013-11-25 23:35:00
5:55 PM,32.9,23.7,69,29.91,10.0,WSW,9.2,-,N/A,,Overcast,250,2013-11-25 23:55:00
6:15 PM,32.5,23.0,68,29.91,10.0,WSW,8.1,-,N/A,,Overcast,250,2013-11-26 00:15:00
6:35 PM,32.4,22.8,68,29.92,10.0,West,11.5,-,N/A,,Overcast,260,2013-11-26 00:35:00
6:55 PM,32.2,22.8,68,29.92,10.0,West,11.5,19.6,N/A,,Overcast,260,2013-11-26 00:55:00
7:15 PM,32.2,22.8,68,29.92,10.0,West,11.5,16.1,N/A,,Overcast,260,2013-11-26 01:15:00
7:35 PM,32.0,22.8,69,29.92,10.0,West,9.2,-,N/A,,Overcast,270,2013-11-26 01:35:00
7:55 PM,32.0,22.6,68,29.91,10.0,West,12.7,18.4,N/A,,Overcast,270,2013-11-26 01:55:00
8:15 PM,32.0,22.5,68,29.91,10.0,West,9.2,16.1,N/A,,Overcast,260,2013-11-26 02:15:00
8:35 PM,32.0,22.1,67,29.91,10.0,West,9.2,-,N/A,,Overcast,260,2013-11-26 02:35:00
8:55 PM,32.0,22.6,68,29.91,10.0,West,11.5,16.1,N/A,,Overcast,260,2013-11-26 02:55:00
9:15 PM,32.0,22.6,68,29.91,10.0,West,11.5,16.1,N/A,,Overcast,270,2013-11-26 03:15:00
9:35 PM,32.0,22.6,68,29.90,10.0,West,9.2,-,N/A,,Overcast,260,2013-11-26 03:35:00
9:55 PM,31.8,22.8,69,29.90,10.0,West,10.4,-,N/A,,Overcast,260,2013-11-26 03:55:00
10:15 PM,31.8,23.0,70,29.90,10.0,West,8.1,-,N/A,,Overcast,260,2013-11-26 04:15:00
10:35 PM,31.6,23.0,70,29.90,10.0,West,11.5,16.1,N/A,,Overcast,260,2013-11-26 04:35:00
10:55 PM,31.8,23.4,71,29.90,10.0,West,10.4,17.3,N/A,,Overcast,270,2013-11-26 04:55:00
11:15 PM,31.8,23.4,71,29.90,10.0,West,9.2,16.1,N/A,,Overcast,260,2013-11-26 05:15:00
11:35 PM,31.6,23.4,71,29.91,10.0,West,13.8,19.6,N/A,,Overcast,270,2013-11-26 05:35:00
11:55 PM,31.1,23.0,72,29.91,10.0,WNW,11.5,19.6,N/A,,Overcast,290,2013-11-26 05:55:00